Regional Weather Roundup
Issued by NWS

Home | Current Version | Previous Version | Graphics & Text | Print | Product List | Glossary On
Versions: 1 2 3 4 5 6 7 8 9 10 11 12 13 14 15 16 17 18 19 20 21 22 23 24 25 26 27 28 29 30 31 32 33 34 35 36 37 38 39 40 41 42 43 44 45 46 47 48 49 50
000
ASUS43 KLMK 302310
RWRKY
KENTUCKY REGIONAL WEATHER ROUNDUP
NATIONAL WEATHER SERVICE LOUISVILLE KY
700 PM EDT THU JUL 30 2015

NOTE "FAIR" INDICATES FEW OR NO CLOUDS BELOW 12,000 FEET
WITH NO SIGNIFICANT WEATHER AND/OR OBSTRUCTIONS TO VISIBILITY.

KYZ001>023-026-027-061>063-070>075-310000-
WESTERN AND SOUTH CENTRAL KENTUCKY

CITY           SKY/WX    TMP DP  RH WIND       PRES   REMARKS
PADUCAH        SUNNY     86  62  44 N9        30.07F
HENDERSON      SUNNY     84  63  48 NW6       30.05F
OWENSBORO      SUNNY     86  64  47 NW8       30.06F
HOPKINSVILLE   SUNNY     83  65  52 N8        30.05F
BOWLING GREEN  SUNNY     85  60  42 NW7G16    30.06F
GLASGOW        SUNNY    N/A N/A N/A N9        30.05F
$$

KYZ024-025-028>034-038-045-046-053-310000-
NORTH CENTRAL KENTUCKY

CITY           SKY/WX    TMP DP  RH WIND       PRES   REMARKS
LOUISVILLE/SDF MOSUNNY   86  57  37 NW13      30.04F
LOUISVILLE/LOU SUNNY     86  55  34 N10       30.05S
FORT KNOX      SUNNY     82  60  47 NW7       30.05F
$$

KYZ035>037-039>044-047>052-055>060-089>105-310000-
NORTHEAST KENTUCKY

CITY           SKY/WX    TMP DP  RH WIND       PRES   REMARKS
LEXINGTON      SUNNY     82  59  45 NW12      30.05F
COVINGTON      MOSUNNY   82  54  37 NW14G20   30.04F
FRANKFORT      SUNNY     83  58  42 NW8       30.04F
$$

KYZ054-064>069-076>088-106>120-310000-
SOUTHEAST KENTUCKY

CITY           SKY/WX    TMP DP  RH WIND       PRES   REMARKS
JACKSON        MOSUNNY   81  61  50 NW8       30.05S
LONDON         MOSUNNY   84  60  44 N12       30.05S
SOMERSET       SUNNY     81  61  50 N12       30.06S
MIDDLESBORO    MOSUNNY   84  65  52 NW10      30.03R
MONTICELLO     CLEAR     84  64  50 N9        30.08S
$$



USA.gov is the U.S. government's official web portal to all federal, state and local government web resources and services.